Time,TemperatureF,DewpointF,PressureIn,WindDirection,WindDirectionDegrees,WindSpeedMPH,WindSpeedGustMPH,Humidity,HourlyPrecipIn,Conditions,Clouds,dailyrainin,SoftwareType,DateUTC
2013-05-03 00:02:00,28.0,26.0,30.54,NW,319,0.0,1.0,91,0.00,,,0.00,,2013-05-03 05:02:00,
2013-05-03 00:12:00,28.0,26.0,30.54,NW,319,0.0,1.0,91,0.00,,,0.00,,2013-05-03 05:12:00,
2013-05-03 00:21:00,28.0,26.0,30.54,NW,319,0.0,1.0,91,0.00,,,0.00,,2013-05-03 05:21:00,
2013-05-03 00:32:00,28.0,26.0,30.53,NW,308,0.0,2.0,92,0.00,,,0.00,,2013-05-03 05:32:00,
2013-05-03 00:42:00,28.0,26.0,30.53,NW,308,0.0,2.0,92,0.00,,,0.00,,2013-05-03 05:42:00,
2013-05-03 00:52:00,28.0,26.0,30.53,NW,307,0.0,1.0,91,0.00,,,0.00,,2013-05-03 05:52:00,
2013-05-03 01:02:00,27.0,25.0,30.53,NW,307,0.0,1.0,92,0.00,,,0.00,,2013-05-03 06:02:00,
2013-05-03 01:11:00,27.0,25.0,30.53,NW,307,0.0,1.0,92,0.00,,,0.00,,2013-05-03 06:11:00,
2013-05-03 01:21:00,27.0,25.0,30.52,NW,308,0.0,0.0,93,0.00,,,0.00,,2013-05-03 06:21:00,
2013-05-03 01:32:00,26.0,24.0,30.52,NW,308,0.0,0.0,93,0.00,,,0.00,,2013-05-03 06:32:00,
2013-05-03 01:42:00,26.0,24.0,30.52,NW,308,0.0,0.0,93,0.00,,,0.00,,2013-05-03 06:42:00,
2013-05-03 01:51:00,26.0,25.0,30.52,NW,308,0.0,0.0,94,0.00,,,0.00,,2013-05-03 06:51:00,
2013-05-03 02:01:00,26.0,25.0,30.51,NW,307,0.0,0.0,94,0.00,,,0.00,,2013-05-03 07:01:00,
2013-05-03 02:11:00,26.0,25.0,30.51,NW,307,0.0,0.0,94,0.00,,,0.00,,2013-05-03 07:11:00,
2013-05-03 02:21:00,26.0,25.0,30.51,NW,307,0.0,1.0,94,0.00,,,0.00,,2013-05-03 07:21:00,
2013-05-03 02:31:00,26.0,25.0,30.50,NW,307,0.0,0.0,94,0.00,,,0.00,,2013-05-03 07:31:00,
2013-05-03 02:42:00,26.0,25.0,30.50,NW,307,0.0,0.0,94,0.00,,,0.00,,2013-05-03 07:42:00,
2013-05-03 02:52:00,25.0,24.0,30.50,NW,308,0.0,0.0,95,0.00,,,0.00,,2013-05-03 07:52:00,
2013-05-03 03:02:00,26.0,25.0,30.50,NW,308,0.0,0.0,95,0.00,,,0.00,,2013-05-03 08:02:00,
2013-05-03 03:11:00,26.0,25.0,30.50,NW,308,0.0,0.0,95,0.00,,,0.00,,2013-05-03 08:11:00,
2013-05-03 03:21:00,25.0,24.0,30.49,NW,307,0.0,0.0,95,0.00,,,0.00,,2013-05-03 08:21:00,
2013-05-03 03:32:00,25.0,24.0,30.49,NW,307,0.0,0.0,96,0.00,,,0.00,,2013-05-03 08:32:00,
2013-05-03 03:42:00,25.0,24.0,30.49,NW,307,0.0,0.0,96,0.00,,,0.00,,2013-05-03 08:42:00,
2013-05-03 03:52:00,25.0,24.0,30.49,NW,308,0.0,0.0,96,0.00,,,0.00,,2013-05-03 08:52:00,
2013-05-03 04:01:00,25.0,24.0,30.49,NW,307,0.0,0.0,96,0.00,,,0.00,,2013-05-03 09:01:00,
2013-05-03 04:12:00,25.0,24.0,30.49,NW,307,0.0,0.0,96,0.00,,,0.00,,2013-05-03 09:12:00,
2013-05-03 04:21:00,26.0,25.0,30.49,NW,308,0.0,1.0,96,0.00,,,0.00,,2013-05-03 09:21:00,
2013-05-03 04:32:00,26.0,25.0,30.49,NNW,340,0.0,2.0,96,0.00,,,0.00,,2013-05-03 09:32:00,
2013-05-03 04:42:00,26.0,25.0,30.49,NNW,340,0.0,2.0,96,0.00,,,0.00,,2013-05-03 09:42:00,
2013-05-03 04:52:00,26.0,25.0,30.49,North,4,0.0,2.0,95,0.00,,,0.00,,2013-05-03 09:52:00,
2013-05-03 05:02:00,25.0,24.0,30.49,North,353,0.0,1.0,95,0.00,,,0.00,,2013-05-03 10:02:00,
2013-05-03 05:12:00,25.0,24.0,30.49,North,353,0.0,1.0,95,0.00,,,0.00,,2013-05-03 10:12:00,
2013-05-03 05:22:00,25.0,24.0,30.48,North,352,0.0,0.0,95,0.00,,,0.00,,2013-05-03 10:22:00,
2013-05-03 05:32:00,25.0,24.0,30.48,North,352,0.0,0.0,96,0.00,,,0.00,,2013-05-03 10:32:00,
2013-05-03 05:42:00,25.0,24.0,30.48,North,352,0.0,0.0,96,0.00,,,0.00,,2013-05-03 10:42:00,
2013-05-03 05:52:00,25.0,24.0,30.48,NNW,341,0.0,1.0,96,0.00,,,0.00,,2013-05-03 10:52:00,
2013-05-03 06:02:00,24.0,23.0,30.48,NNW,341,0.0,0.0,96,0.00,,,0.00,,2013-05-03 11:02:00,
2013-05-03 06:11:00,24.0,23.0,30.48,NNW,341,0.0,0.0,96,0.00,,,0.00,,2013-05-03 11:11:00,
2013-05-03 06:22:00,24.0,23.0,30.48,NNW,340,0.0,0.0,96,0.00,,,0.00,,2013-05-03 11:22:00,
2013-05-03 06:32:00,24.0,23.0,30.48,NNW,339,0.0,0.0,96,0.00,,,0.00,,2013-05-03 11:32:00,
2013-05-03 06:42:00,24.0,23.0,30.48,NNW,339,0.0,0.0,96,0.00,,,0.00,,2013-05-03 11:42:00,
2013-05-03 06:51:00,24.0,23.0,30.48,NNW,338,0.0,0.0,95,0.00,,,0.00,,2013-05-03 11:51:00,
2013-05-03 07:01:00,25.0,24.0,30.48,NNW,339,0.0,0.0,95,0.00,,,0.00,,2013-05-03 12:01:00,
2013-05-03 07:11:00,25.0,24.0,30.48,NNW,339,0.0,0.0,95,0.00,,,0.00,,2013-05-03 12:11:00,
2013-05-03 07:21:00,26.0,25.0,30.48,NNW,338,0.0,0.0,95,0.00,,,0.00,,2013-05-03 12:21:00,
2013-05-03 07:32:00,28.0,27.0,30.47,NNW,339,0.0,0.0,95,0.00,,,0.00,,2013-05-03 12:32:00,
2013-05-03 07:42:00,28.0,27.0,30.47,NNW,339,0.0,0.0,95,0.00,,,0.00,,2013-05-03 12:42:00,
2013-05-03 07:51:00,29.0,28.0,30.47,North,11,0.0,1.0,95,0.00,,,0.00,,2013-05-03 12:51:00,
2013-05-03 08:01:00,30.0,28.0,30.47,NNE,18,0.0,1.0,94,0.00,,,0.00,,2013-05-03 13:01:00,
2013-05-03 08:11:00,30.0,28.0,30.47,NNE,18,0.0,1.0,94,0.00,,,0.00,,2013-05-03 13:11:00,
2013-05-03 08:22:00,31.0,28.0,30.47,ENE,65,1.0,3.0,89,0.00,,,0.00,,2013-05-03 13:22:00,
2013-05-03 08:32:00,33.0,29.0,30.47,East,81,0.0,2.0,85,0.00,,,0.00,,2013-05-03 13:32:00,
2013-05-03 08:42:00,33.0,29.0,30.47,East,81,0.0,2.0,85,0.00,,,0.00,,2013-05-03 13:42:00,
2013-05-03 08:52:00,33.0,28.0,30.47,ENE,62,0.0,2.0,83,0.00,,,0.00,,2013-05-03 13:52:00,
2013-05-03 09:02:00,34.0,28.0,30.47,ENE,78,1.0,3.0,78,0.00,,,0.00,,2013-05-03 14:02:00,
2013-05-03 09:11:00,34.0,28.0,30.47,ENE,78,1.0,3.0,78,0.00,,,0.00,,2013-05-03 14:11:00,
2013-05-03 09:22:00,34.0,26.0,30.46,East,99,2.0,4.0,73,0.00,,,0.00,,2013-05-03 14:22:00,
2013-05-03 09:32:00,35.0,28.0,30.46,ENE,68,1.0,4.0,74,0.00,,,0.00,,2013-05-03 14:32:00,
2013-05-03 09:42:00,35.0,28.0,30.46,ENE,68,1.0,4.0,74,0.00,,,0.00,,2013-05-03 14:42:00,
2013-05-03 09:52:00,35.0,26.0,30.45,ENE,64,1.0,4.0,70,0.00,,,0.00,,2013-05-03 14:52:00,
2013-05-03 10:01:00,36.0,26.0,30.45,ENE,66,2.0,4.0,68,0.00,,,0.00,,2013-05-03 15:01:00,
2013-05-03 10:11:00,36.0,26.0,30.45,ENE,66,2.0,4.0,68,0.00,,,0.00,,2013-05-03 15:11:00,
2013-05-03 10:22:00,37.0,27.0,30.45,North,356,0.0,4.0,68,0.00,,,0.00,,2013-05-03 15:22:00,
2013-05-03 10:32:00,37.0,27.0,30.43,NE,42,1.0,4.0,66,0.00,,,0.00,,2013-05-03 15:32:00,
2013-05-03 10:43:00,37.0,27.0,30.43,NE,42,1.0,4.0,66,0.00,,,0.00,,2013-05-03 15:43:00,
2013-05-03 10:53:00,37.0,27.0,30.42,ENE,69,4.0,6.0,67,0.00,,,0.00,,2013-05-03 15:53:00,
2013-05-03 11:03:00,37.0,27.0,30.43,ENE,65,3.0,7.0,67,0.00,,,0.00,,2013-05-03 16:03:00,
2013-05-03 11:12:00,37.0,27.0,30.43,ENE,65,3.0,7.0,67,0.00,,,0.00,,2013-05-03 16:12:00,
2013-05-03 11:22:00,38.0,28.0,30.42,NE,34,4.0,8.0,66,0.00,,,0.00,,2013-05-03 16:22:00,
2013-05-03 11:32:00,38.0,29.0,30.42,NNE,25,3.0,8.0,70,0.00,,,0.00,,2013-05-03 16:32:00,
2013-05-03 11:42:00,38.0,29.0,30.42,NNE,25,3.0,8.0,70,0.00,,,0.00,,2013-05-03 16:42:00,
2013-05-03 11:52:00,38.0,29.0,30.41,North,4,4.0,9.0,69,0.00,,,0.00,,2013-05-03 16:52:00,
2013-05-03 12:02:00,38.0,29.0,30.41,North,4,4.0,9.0,69,0.00,,,0.00,,2013-05-03 17:02:00,
2013-05-03 12:12:00,38.0,29.0,30.41,North,4,4.0,9.0,69,0.00,,,0.00,,2013-05-03 17:12:00,
2013-05-03 12:23:00,39.0,30.0,30.41,East,86,5.0,8.0,69,0.00,,,0.00,,2013-05-03 17:23:00,
2013-05-03 12:32:00,40.0,30.0,30.40,ENE,68,3.0,7.0,67,0.00,,,0.00,,2013-05-03 17:32:00,
2013-05-03 12:42:00,40.0,30.0,30.40,ENE,68,3.0,7.0,67,0.00,,,0.00,,2013-05-03 17:42:00,
2013-05-03 12:51:00,40.0,30.0,30.40,ENE,62,3.0,8.0,66,0.00,,,0.00,,2013-05-03 17:51:00,
2013-05-03 13:01:00,41.0,31.0,30.39,ENE,74,4.0,10.0,67,0.00,,,0.00,,2013-05-03 18:01:00,
2013-05-03 13:12:00,41.0,31.0,30.39,ENE,74,4.0,10.0,67,0.00,,,0.00,,2013-05-03 18:12:00,
2013-05-03 13:21:00,42.0,33.0,30.38,ENE,60,5.0,9.0,69,0.00,,,0.00,,2013-05-03 18:21:00,
2013-05-03 13:32:00,42.0,32.0,30.37,NE,56,4.0,9.0,68,0.00,,,0.00,,2013-05-03 18:32:00,
2013-05-03 13:42:00,42.0,32.0,30.37,NE,56,4.0,9.0,68,0.00,,,0.00,,2013-05-03 18:42:00,
2013-05-03 13:51:00,42.0,30.0,30.36,NE,36,4.0,9.0,63,0.00,,,0.00,,2013-05-03 18:51:00,
2013-05-03 14:01:00,43.0,32.0,30.35,NW,323,4.0,11.0,65,0.00,,,0.00,,2013-05-03 19:01:00,
2013-05-03 14:11:00,43.0,32.0,30.35,NW,323,4.0,11.0,65,0.00,,,0.00,,2013-05-03 19:11:00,
2013-05-03 14:21:00,44.0,33.0,30.35,NNW,341,6.0,9.0,65,0.00,,,0.00,,2013-05-03 19:21:00,
2013-05-03 14:32:00,44.0,32.0,30.35,ENE,67,4.0,14.0,63,0.00,,,0.00,,2013-05-03 19:32:00,
2013-05-03 14:42:00,44.0,32.0,30.35,ENE,67,4.0,14.0,63,0.00,,,0.00,,2013-05-03 19:42:00,
2013-05-03 14:52:00,45.0,33.0,30.34,NE,56,3.0,11.0,63,0.00,,,0.00,,2013-05-03 19:52:00,
2013-05-03 15:02:00,45.0,33.0,30.33,NNE,20,7.0,16.0,63,0.00,,,0.00,,2013-05-03 20:02:00,
2013-05-03 15:11:00,45.0,33.0,30.33,NNE,20,7.0,16.0,63,0.00,,,0.00,,2013-05-03 20:11:00,
2013-05-03 15:21:00,46.0,35.0,30.32,NNE,23,5.0,11.0,65,0.00,,,0.00,,2013-05-03 20:21:00,
2013-05-03 15:32:00,46.0,32.0,30.32,ENE,61,8.0,14.0,59,0.00,,,0.00,,2013-05-03 20:32:00,
2013-05-03 15:42:00,46.0,32.0,30.32,ENE,61,8.0,14.0,59,0.00,,,0.00,,2013-05-03 20:42:00,
2013-05-03 15:52:00,47.0,35.0,30.32,NNE,33,8.0,13.0,63,0.00,,,0.00,,2013-05-03 20:52:00,
2013-05-03 16:01:00,47.0,34.0,30.31,North,4,7.0,12.0,61,0.00,,,0.00,,2013-05-03 21:01:00,
2013-05-03 16:11:00,47.0,34.0,30.31,North,4,7.0,12.0,61,0.00,,,0.00,,2013-05-03 21:11:00,
2013-05-03 16:21:00,47.0,35.0,30.31,NW,326,6.0,11.0,62,0.00,,,0.00,,2013-05-03 21:21:00,
2013-05-03 16:33:00,47.0,35.0,30.30,North,5,7.0,12.0,62,0.00,,,0.00,,2013-05-03 21:33:00,
2013-05-03 16:42:00,47.0,35.0,30.30,North,5,7.0,12.0,62,0.00,,,0.00,,2013-05-03 21:42:00,
2013-05-03 16:52:00,48.0,35.0,30.29,NNE,18,7.0,13.0,60,0.00,,,0.00,,2013-05-03 21:52:00,
2013-05-03 17:02:00,48.0,35.0,30.29,NW,309,7.0,14.0,60,0.00,,,0.00,,2013-05-03 22:02:00,
2013-05-03 17:12:00,48.0,35.0,30.29,NW,309,7.0,14.0,60,0.00,,,0.00,,2013-05-03 22:12:00,
2013-05-03 17:22:00,49.0,35.0,30.28,NNE,26,5.0,11.0,59,0.00,,,0.00,,2013-05-03 22:22:00,
2013-05-03 17:32:00,49.0,36.0,30.28,NW,316,9.0,12.0,61,0.00,,,0.00,,2013-05-03 22:32:00,
2013-05-03 17:42:00,49.0,36.0,30.28,NW,316,9.0,12.0,61,0.00,,,0.00,,2013-05-03 22:42:00,
2013-05-03 17:52:00,49.0,34.0,30.27,NNE,27,5.0,13.0,57,0.00,,,0.00,,2013-05-03 22:52:00,
2013-05-03 18:02:00,49.0,36.0,30.27,NNE,23,8.0,11.0,60,0.00,,,0.00,,2013-05-03 23:02:00,
2013-05-03 18:11:00,49.0,36.0,30.27,NNE,23,8.0,11.0,60,0.00,,,0.00,,2013-05-03 23:11:00,
2013-05-03 18:21:00,49.0,35.0,30.27,NNW,330,6.0,10.0,59,0.00,,,0.00,,2013-05-03 23:21:00,
2013-05-03 18:31:00,49.0,36.0,30.27,NE,44,8.0,13.0,60,0.00,,,0.00,,2013-05-03 23:31:00,
2013-05-03 18:41:00,49.0,36.0,30.27,NE,44,8.0,13.0,60,0.00,,,0.00,,2013-05-03 23:41:00,
2013-05-03 18:52:00,49.0,36.0,30.27,North,352,7.0,13.0,60,0.00,,,0.00,,2013-05-03 23:52:00,
2013-05-03 19:01:00,48.0,35.0,30.27,North,352,5.0,9.0,61,0.00,,,0.00,,2013-05-04 00:01:00,
2013-05-03 19:11:00,48.0,35.0,30.27,North,352,5.0,9.0,61,0.00,,,0.00,,2013-05-04 00:11:00,
2013-05-03 19:23:00,48.0,36.0,30.27,NNE,30,6.0,11.0,63,0.00,,,0.00,,2013-05-04 00:23:00,
2013-05-03 19:32:00,48.0,36.0,30.27,NNE,16,7.0,10.0,63,0.00,,,0.00,,2013-05-04 00:32:00,
2013-05-03 19:41:00,48.0,36.0,30.27,NNE,16,7.0,10.0,63,0.00,,,0.00,,2013-05-04 00:41:00,
2013-05-03 19:52:00,48.0,36.0,30.26,NNW,327,6.0,11.0,63,0.00,,,0.00,,2013-05-04 00:52:00,
2013-05-03 20:01:00,48.0,36.0,30.26,North,360,7.0,10.0,63,0.00,,,0.00,,2013-05-04 01:01:00,
2013-05-03 20:11:00,48.0,36.0,30.26,North,360,7.0,10.0,63,0.00,,,0.00,,2013-05-04 01:11:00,
2013-05-03 20:21:00,48.0,36.0,30.26,North,6,5.0,10.0,63,0.00,,,0.00,,2013-05-04 01:21:00,
2013-05-03 20:32:00,47.0,37.0,30.26,North,356,5.0,10.0,67,0.00,,,0.00,,2013-05-04 01:32:00,
2013-05-03 20:41:00,47.0,37.0,30.26,North,356,5.0,10.0,67,0.00,,,0.00,,2013-05-04 01:41:00,
2013-05-03 20:52:00,46.0,37.0,30.26,NNE,29,4.0,8.0,70,0.00,,,0.00,,2013-05-04 01:52:00,
2013-05-03 21:02:00,44.0,36.0,30.26,North,6,4.0,7.0,73,0.00,,,0.00,,2013-05-04 02:02:00,
2013-05-03 21:11:00,44.0,36.0,30.26,North,6,4.0,7.0,73,0.00,,,0.00,,2013-05-04 02:11:00,
2013-05-03 21:21:00,43.0,36.0,30.27,NNE,12,2.0,4.0,76,0.00,,,0.00,,2013-05-04 02:21:00,
2013-05-03 21:32:00,42.0,36.0,30.26,North,349,1.0,3.0,78,0.00,,,0.00,,2013-05-04 02:32:00,
2013-05-03 21:41:00,42.0,36.0,30.26,North,349,1.0,3.0,78,0.00,,,0.00,,2013-05-04 02:41:00,
2013-05-03 21:52:00,41.0,36.0,30.26,NNE,13,0.0,4.0,81,0.00,,,0.00,,2013-05-04 02:52:00,
2013-05-03 22:02:00,41.0,36.0,30.26,NW,321,0.0,5.0,81,0.00,,,0.00,,2013-05-04 03:02:00,
2013-05-03 22:11:00,41.0,36.0,30.26,NW,321,0.0,5.0,81,0.00,,,0.00,,2013-05-04 03:11:00,
2013-05-03 22:22:00,41.0,36.0,30.27,North,356,1.0,3.0,82,0.00,,,0.00,,2013-05-04 03:22:00,
2013-05-03 22:33:00,40.0,36.0,30.27,ENE,75,2.0,5.0,84,0.00,,,0.00,,2013-05-04 03:33:00,
2013-05-03 22:43:00,40.0,36.0,30.27,ENE,75,2.0,5.0,84,0.00,,,0.00,,2013-05-04 03:43:00,
2013-05-03 22:52:00,41.0,36.0,30.27,NNE,15,3.0,5.0,83,0.00,,,0.00,,2013-05-04 03:52:00,
2013-05-03 23:02:00,41.0,36.0,30.27,NE,56,2.0,5.0,81,0.00,,,0.00,,2013-05-04 04:02:00,
2013-05-03 23:12:00,41.0,36.0,30.27,NE,56,2.0,5.0,81,0.00,,,0.00,,2013-05-04 04:12:00,
2013-05-03 23:22:00,41.0,36.0,30.27,NNW,347,0.0,3.0,82,0.00,,,0.00,,2013-05-04 04:22:00,
2013-05-03 23:32:00,39.0,35.0,30.26,North,9,2.0,3.0,86,0.00,,,0.00,,2013-05-04 04:32:00,
2013-05-03 23:42:00,39.0,35.0,30.26,North,9,2.0,3.0,86,0.00,,,0.00,,2013-05-04 04:42:00,
2013-05-03 23:52:00,38.0,34.0,30.26,North,356,0.0,2.0,87,0.00,,,0.00,,2013-05-04 04:52:00,